Location: Sihaung
(22.8641°N, 94.0549°E)
Time: 03:01:38
(UTC+00:00)

COSMOS 2455 - Pass Details

Date: 03 March 2021
Orbit: 902 x 908 km, 67.1° (Epoch: 13 April)

Event Time Altitude Azimuth Distance (km) Brightness Sun altitude
Rises 12:03:22 0° 338° (NNW) 3,531 6.2 -4.3°
Reaches altitude 10° 12:05:53 10° 339° (NNW) 2,587 5.5 -4.9°
Maximum altitude 12:11:54 85° 68° (ENE) 911 2.9 -6.3°
Drops below altitude 10° 12:17:54 10° 157° (SSE) 2,576 5.0 -7.7°
Sets 12:20:23 0° 158° (SSE) 3,514 5.7 -8.2°
